FW6151 Weather Reports


time (UTC)temp
F
wind
direction
speed
knots
gust
knots
rain 1hr
in
rain 24hr
in
rain mn
in
humidity
%
barometer
mb
20260831145057 78 180 1.7 11.3 0.00 0.38 0.38 48 1020.7
20260831144614 78 244 3.5 12.2 0.00 0.38 0.38 48 1020.6
20260831144057 78 178 2.6 12.2 0.00 0.38 0.38 48 1020.5
20260831143556 79 240 1.7 13.0 0.00 0.38 0.38 48 1020.5
20260831143056 79 74 3.5 13.0 0.00 0.38 0.38 47 1020.3
20260831142556 79 350 1.7 7.0 0.00 0.38 0.38 48 1020.3
20260831142055 79 128 1.7 6.1 0.00 0.38 0.38 48 1020.3
20260831141555 80 159 0.9 7.8 0.00 0.38 0.38 47 1020.2
20260831141059 80 12 1.7 7.8 0.00 0.38 0.38 48 1020.4
20260831140559 80 284 0.9 7.0 0.00 0.38 0.38 47 1020.2
20260831140055 80 338 1.7 6.1 0.00 0.38 0.38 47 1020.3
20260831135555 79 169 0.9 6.1 0.00 0.38 0.38 48 1020.3
20260831135055 79 331 0.9 7.8 0.00 0.38 0.38 48 1020.3
20260831134559 78 143 1.7 10.4 0.00 0.38 0.38 47 1020.4
20260831134055 80 340 1.7 10.4 0.00 0.38 0.38 45 1020.2
20260831133554 80 26 0.9 7.0 0.00 0.38 0.38 44 1020.3
20260831133055 80 51 0.0 7.0 0.00 0.38 0.38 44 1020.2
20260831132554 80 119 1.7 5.2 0.00 0.38 0.38 44 1020.3
20260831132054 80 63 0.9 4.3 0.00 0.38 0.38 44 1020.4
20260831131554 80 192 1.7 5.2 0.00 0.38 0.38 44 1020.4
20260831131052 80 284 0.9 7.8 0.00 0.38 0.38 44 1020.5
20260831130551 79 131 1.7 7.0 0.00 0.38 0.38 44 1020.4
20260831130051 79 54 1.7 8.7 0.00 0.38 0.38 44 1020.5
20260831125553 78 19 2.6 10.4 0.00 0.38 0.38 44 1020.6
20260831125050 79 350 3.5 10.4 0.00 0.38 0.38 43 1020.6
20260831124550 79 309 1.7 7.8 0.00 0.38 0.38 44 1020.7
20260831124050 79 339 2.6 10.4 0.00 0.38 0.38 44 1020.7
20260831123549 78 324 3.5 10.4 0.00 0.38 0.38 45 1020.6
20260831123048 78 177 1.7 7.8 0.00 0.38 0.38 46 1020.6
20260831122547 78 79 2.6 7.8 0.00 0.38 0.38 45 1020.6
20260831122048 78 294 1.7 7.8 0.00 0.38 0.38 45 1020.7
20260831121547 78 319 1.7 9.6 0.00 0.38 0.38 46 1020.7
20260831121046 77 18 2.6 9.6 0.00 0.38 0.38 46 1020.8
20260831120548 78 76 1.7 7.0 0.00 0.38 0.38 46 1020.8
20260831120045 77 355 1.7 7.0 0.00 0.38 0.38 45 1020.8
20260831115544 77 65 1.7 7.8 0.00 0.38 0.38 46 1020.8
20260831115044 77 360 2.6 7.8 0.00 0.38 0.38 46 1020.9
20260831114545 77 5 1.7 7.0 0.00 0.38 0.38 46 1020.9
20260831114047 77 348 1.7 13.9 0.00 0.38 0.38 46 1021.0
20260831113543 77 277 3.5 13.9 0.00 0.38 0.38 46 1020.9
20260831113047 76 335 1.7 7.0 0.00 0.38 0.38 50 1020.9
20260831112541 76 219 1.7 7.8 0.00 0.38 0.38 50 1021.0
20260831112040 76 309 2.6 7.8 0.00 0.38 0.38 50 1021.0
20260831111603 76 355 1.7 6.1 0.00 0.38 0.38 50 1021.1
20260831111039 75 185 1.7 8.7 0.00 0.38 0.38 51 1021.2
20260831110537 75 55 2.6 8.7 0.00 0.38 0.38 52 1021.2
20260831110048 75 226 2.6 9.6 0.00 0.38 0.38 52 1021.1
20260831105536 74 336 2.6 9.6 0.00 0.38 0.38 53 1021.1
20260831105036 74 181 1.7 7.0 0.00 0.38 0.38 53 1021.2
20260831104536 74 154 1.7 6.1 0.00 0.38 0.38 54 1021.1
20260831104035 74 153 0.9 6.1 0.00 0.38 0.38 55 1021.1
20260831103534 74 306 0.0 5.2 0.00 0.38 0.38 55 1021.2
20260831103034 74 184 1.7 4.3 0.00 0.38 0.38 55 1021.1
20260831102534 74 325 0.9 4.3 0.00 0.38 0.38 55 1021.2
20260831102033 74 360 0.9 4.3 0.00 0.38 0.38 56 1021.2
20260831101533 73 92 0.9 5.2 0.00 0.38 0.38 57 1021.3
20260831101032 73 265 0.9 5.2 0.00 0.38 0.38 56 1021.3
20260831100532 73 53 0.0 7.0 0.00 0.38 0.38 58 1021.3
20260831100031 73 341 1.7 8.7 0.00 0.38 0.38 57 1021.3
20260831095531 73 309 3.5 8.7 0.00 0.38 0.38 56 1021.3
20260831095030 73 76 1.7 7.0 0.00 0.38 0.38 57 1021.4
20260831094530 73 148 1.7 7.0 0.00 0.38 0.38 58 1021.4
20260831094031 73 319 1.7 7.8 0.00 0.38 0.38 59 1021.4
20260831093531 73 230 2.6 7.8 0.00 0.38 0.38 59 1021.5
20260831093028 73 253 1.7 5.2 0.00 0.38 0.38 59 1021.4
20260831092525 72 281 0.9 5.2 0.00 0.38 0.38 61 1021.5
20260831092024 72 318 2.6 6.1 0.00 0.38 0.38 61 1021.4
20260831091524 71 46 2.6 11.3 0.00 0.38 0.38 60 1021.6
20260831091021 71 257 1.7 11.3 0.00 0.38 0.38 63 1021.6
20260831090521 71 240 1.7 7.0 0.00 0.38 0.38 64 1021.5
20260831090020 70 63 0.9 5.2 0.00 0.38 0.38 65 1021.6
20260831085518 70 30 0.9 11.3 0.00 0.38 0.38 67 1021.5
20260831085022 69 96 2.6 11.3 0.00 0.38 0.38 67 1021.5
20260831084531 68 234 0.9 5.2 0.00 0.38 0.38 70 1021.4
20260831084015 68 22 1.7 5.2 0.00 0.38 0.38 71 1021.4
20260831083516 68 167 0.9 4.3 0.00 0.38 0.38 73 1021.4
20260831083014 68 254 0.0 3.5 0.00 0.38 0.38 72 1021.3
20260831082514 68 233 0.9 10.4 0.00 0.38 0.38 72 1021.3
20260831082013 68 168 3.5 10.4 0.00 0.38 0.38 72 1021.3
20260831081521 68 213 0.9 4.3 0.00 0.38 0.38 73 1021.3
20260831081014 68 211 0.9 7.0 0.00 0.38 0.38 73 1021.2
20260831080511 68 157 1.7 7.0 0.00 0.38 0.38 72 1021.1
20260831080011 68 150 1.7 4.3 0.00 0.38 0.38 74 1021.1
20260831075510 67 234 0.0 2.6 0.00 0.38 0.38 76 1021.2
20260831075013 67 49 0.9 3.5 0.00 0.38 0.38 76 1021.2
20260831074529 67 278 1.7 3.5 0.00 0.38 0.38 77 1021.1
20260831074009 66 95 0.9 6.1 0.00 0.38 0.38 77 1021.1
20260831073509 66 110 0.9 6.1 0.00 0.38 0.38 77 1021.1
20260831073015 66 124 1.7 5.2 0.00 0.38 0.38 77 1021.1
20260831072507 66 107 0.0 6.1 0.00 0.38 0.38 78 1021.1
20260831072005 66 240 0.9 6.1 0.00 0.38 0.38 79 1021.0
20260831071504 65 298 0.9 3.5 0.00 0.38 0.38 79 1021.0
20260831071004 65 91 0.0 5.2 0.00 0.38 0.38 79 1021.0
20260831070504 65 128 0.0 7.0 0.00 0.38 0.38 79 1020.9
20260831070004 65 94 0.0 5.2 0.00 0.38 0.38 80 1021.0
20260831065504 65 350 0.9 5.2 0.00 0.38 0.38 80 1020.9
20260831065004 65 338 1.7 5.2 0.00 0.38 0.38 80 1020.9
20260831064509 65 67 0.0 7.0 0.00 0.38 0.38 80 1021.0
20260831064003 64 124 0.9 5.2 0.00 0.38 0.38 81 1020.9
20260831063502 64 146 0.0 3.5 0.00 0.38 0.38 82 1020.8
20260831063004 64 60 0.0 3.5 0.00 0.38 0.38 82 1020.9
20260831062502 64 31 0.0 3.5 0.00 0.38 0.38 82 1020.8
20260831062002 64 31 0.0 6.1 0.00 0.38 0.38 83 1020.7
20260831061502 64 99 0.9 6.1 0.00 0.38 0.38 83 1020.7
20260831061100 64 227 0.9 7.8 0.00 0.38 0.38 83 1020.6
20260831060600 64 340 1.7 7.8 0.00 0.38 0.38 83 1020.7
20260831060113 63 155 0.0 3.5 0.00 0.38 0.38 84 1020.6
20260831055558 63 100 0.0 3.5 0.00 0.38 0.38 84 1020.5
20260831055101 63 348 0.0 5.2 0.00 0.38 0.38 84 1020.5
20260831054600 63 88 0.9 5.2 0.00 0.38 0.38 84 1020.6
20260831054057 63 324 1.7 4.3 0.00 0.38 0.38 84 1020.6
20260831053558 63 25 0.0 2.6 0.00 0.38 0.38 84 1020.6
20260831053056 63 178 0.0 2.6 0.00 0.38 0.38 84 1020.5
20260831052555 63 246 0.0 5.2 0.00 0.38 0.38 84 1020.6
20260831052054 63 90 0.9 5.2 0.00 0.38 0.38 84 1020.4
20260831051554 63 184 0.0 3.5 0.00 0.38 0.38 84 1020.3
20260831051053 64 153 0.0 3.5 0.00 0.38 0.38 85 1020.4
20260831050552 64 186 0.0 3.5 0.00 0.38 0.38 85 1020.4
20260831050117 64 150 0.0 4.3 0.00 0.38 0.38 85 1020.3
20260831045550 64 136 0.0 4.3 0.00 0.38 0.38 85 1020.1
20260831045049 64 213 0.0 4.3 0.00 0.38 0.38 86 1020.2
20260831044549 64 155 0.9 4.3 0.00 0.38 0.38 86 1020.1
20260831044048 64 186 0.0 1.7 0.00 0.38 0.38 86 1020.1
20260831043547 64 186 0.0 2.6 0.00 0.38 0.38 86 1020.2
20260831043049 64 186 0.0 4.3 0.00 0.38 0.38 86 1020.2
20260831042546 64 124 0.0 4.3 0.00 0.38 0.38 87 1020.1
20260831042046 64 87 0.9 3.5 0.00 0.38 0.38 87 1019.9
20260831041549 64 112 0.9 7.8 0.00 0.38 0.38 87 1020.1
20260831041045 64 126 0.9 3.5 0.00 0.38 0.38 88 1020.0
20260831040545 64 292 0.0 3.5 0.00 0.38 0.38 89 1020.0
20260831040051 64 184 0.0 2.6 0.00 0.38 0.38 89 1019.9
20260831035544 64 306 0.0 2.6 0.00 0.38 0.38 90 1019.8
20260831035044 64 298 0.0 1.7 0.00 0.38 0.38 90 1019.8
20260831034544 64 296 0.0 3.5 0.01 0.38 0.38 91 1019.8
20260831034043 64 232 0.0 1.7 0.01 0.38 0.38 91 1019.8
20260831033544 64 187 0.0 1.7 0.01 0.38 0.38 91 1019.7
20260831033042 64 193 0.0 1.7 0.01 0.38 0.38 92 1019.7
20260831032542 64 269 0.0 2.6 0.01 0.38 0.38 92 1019.6
20260831032042 64 316 0.0 3.5 0.01 0.38 0.38 92 1019.6
20260831031541 64 355 0.0 3.5 0.01 0.38 0.38 92 1019.5
20260831031041 64 177 0.0 0.0 0.01 0.38 0.38 92 1019.6
20260831030541 64 177 0.0 0.0 0.01 0.38 0.38 93 1019.6
20260831030050 64 177 0.0 0.0 0.01 0.38 0.38 93 1019.5
20260831025540 64 177 0.0 0.0 0.01 0.38 0.38 93 1019.5
20260831025040 64 177 0.0 1.7 0.01 0.38 0.38 93 1019.5
20260831024540 64 177 0.0 1.7 0.00 0.37 0.37 93 1019.4
20260831024039 64 177 0.0 0.0 0.00 0.37 0.37 93 1019.4
20260831023538 64 177 0.0 0.0 0.00 0.37 0.37 93 1019.4
20260831023039 64 177 0.0 0.0 0.00 0.37 0.37 93 1019.4
20260831022540 64 177 0.0 0.0 0.00 0.37 0.37 93 1019.3
20260831022038 64 177 0.0 1.7 0.00 0.37 0.37 93 1019.3
20260831021537 64 177 0.0 1.7 0.00 0.37 0.37 93 1019.3
20260831021037 64 177 0.0 1.7 0.00 0.37 0.37 93 1019.1
20260831020537 64 177 0.0 0.9 0.00 0.37 0.37 93 1019.1
20260831020037 64 177 0.0 1.7 0.00 0.37 0.37 93 1019.0
20260831015536 64 177 0.0 1.7 0.00 0.37 0.37 93 1019.0
20260831015036 64 177 0.0 1.7 0.00 0.37 0.37 93 1019.0
20260831014545 64 177 0.0 0.0 0.00 0.37 0.37 93 1018.9
20260831014036 64 177 0.0 0.0 0.00 0.37 0.37 93 1018.9
20260831013536 64 177 0.0 0.0 0.00 0.37 0.37 93 1018.9
20260831013038 64 177 0.0 0.0 0.00 0.37 0.37 92 1018.9
20260831012535 64 177 0.0 0.0 0.00 0.37 0.37 92 1019.0
20260831012035 64 177 0.0 0.0 0.00 0.37 0.37 92 1019.1
20260831011539 64 177 0.0 0.0 0.00 0.37 0.37 92 1019.1
20260831011034 65 177 0.0 0.0 0.00 0.37 0.37 92 1019.1
20260831010534 65 177 0.0 0.0 0.00 0.37 0.37 92 1019.1
20260831010034 65 177 0.0 0.0 0.00 0.37 0.37 92 1019.2
20260831005533 65 177 0.0 0.0 0.00 0.37 0.37 92 1019.2
20260831005034 65 177 0.0 0.0 0.00 0.37 0.37 92 1019.1
20260831004533 65 177 0.0 0.0 0.00 0.37 0.37 92 1019.1
20260831004033 65 177 0.0 0.0 0.00 0.37 0.37 92 1019.0
20260831003532 65 177 0.0 0.0 0.00 0.37 0.37 92 1019.1
20260831003032 65 177 0.0 0.0 0.00 0.37 0.37 92 1019.1
20260831002532 65 177 0.0 0.0 0.01 0.37 0.37 92 1019.1
20260831002031 65 177 0.0 0.0 0.02 0.37 0.37 91 1019.0
20260831001534 65 177 0.0 0.0 0.04 0.37 0.37 91 1019.0
20260831001031 65 177 0.0 0.0 0.05 0.37 0.37 91 1018.9
20260831000531 65 177 0.0 0.0 0.11 0.37 0.37 91 1018.9
20260831000030 65 177 0.0 0.0 0.20 0.37 0.37 91 1018.8
20260830235530 65 177 0.0 0.0 0.23 0.37 0.37 91 1018.5
20260830235029 65 177 0.0 0.0 0.23 0.37 0.37 91 1018.5
20260830234530 65 177 0.0 0.0 0.23 0.37 0.37 91 1018.8
20260830234029 65 177 0.0 0.0 0.23 0.37 0.37 90 1018.6
20260830233528 65 177 0.0 0.0 0.23 0.37 0.37 90 1018.4
20260830233037 65 177 0.0 0.0 0.23 0.37 0.37 90 1018.4
20260830232528 66 177 0.0 0.0 0.22 0.36 0.36 90 1018.2
20260830232027 66 177 0.0 1.7 0.22 0.35 0.35 90 1019.0
20260830231527 66 153 0.0 5.2 0.22 0.33 0.33 89 1019.4
20260830231025 66 184 0.9 5.2 0.24 0.31 0.31 89 1019.1
20260830230525 66 122 0.0 3.5 0.23 0.24 0.24 88 1018.8
20260830230026 66 355 0.0 3.5 0.16 0.16 0.16 88 1019.0
20260830225523 66 83 0.0 1.7 0.14 0.14 0.14 87 1018.9
20260830225031 67 61 0.0 1.7 0.14 0.14 0.14 86 1018.0
20260830224521 67 61 0.0 0.9 0.14 0.14 0.14 86 1017.3
20260830224020 67 61 0.0 2.6 0.14 0.14 0.14 85 1017.3
20260830223519 67 59 0.0 2.6 0.14 0.14 0.14 85 1017.0
20260830223018 68 53 0.0 2.6 0.14 0.14 0.14 84 1017.4
20260830222516 68 317 0.0 4.3 0.14 0.14 0.14 82 1017.4
20260830222014 69 315 0.9 6.1 0.13 0.13 0.13 82 1017.3
20260830221514 69 208 2.6 9.6 0.10 0.10 0.10 80 1017.6
20260830221013 70 57 1.7 9.6 0.06 0.06 0.06 78 1018.1
20260830220511 70 99 1.7 7.8 0.01 0.01 0.01 75 1017.7
20260830220110 70 146 1.7 7.0 0.00 0.00 0.00 73 1017.5
20260830215510 70 317 0.9 5.2 0.00 0.00 0.00 72 1016.4
20260830215010 70 319 0.0 2.6 0.00 0.00 0.00 72 1016.1
20260830214510 70 302 0.9 2.6 0.00 0.00 0.00 72 1016.0
20260830214008 71 300 0.0 2.6 0.00 0.00 0.00 71 1016.0
20260830213508 71 299 0.0 2.6 0.00 0.00 0.00 71 1016.0
20260830213012 71 298 0.0 0.9 0.00 0.00 0.00 71 1016.0
20260830212508 71 299 0.0 1.7 0.00 0.00 0.00 70 1016.0
20260830212008 71 299 0.0 0.0 0.00 0.00 0.00 70 1016.1
20260830211508 72 299 0.0 0.9 0.00 0.00 0.00 70 1016.1
20260830211008 72 299 0.0 3.5 0.00 0.00 0.00 70 1016.2
20260830210508 72 299 1.7 3.5 0.00 0.00 0.00 70 1016.3
20260830210018 72 296 0.9 2.6 0.00 0.00 0.00 70 1016.3
20260830205511 72 296 0.9 2.6 0.00 0.00 0.00 69 1016.3
20260830205008 72 296 0.0 2.6 0.00 0.00 0.00 69 1016.2
20260830204507 73 294 0.0 1.7 0.00 0.00 0.00 69 1016.3
20260830204006 73 294 0.9 2.6 0.00 0.00 0.00 68 1016.3
20260830203506 73 294 1.7 2.6 0.00 0.00 0.00 67 1016.4
20260830203006 73 261 0.0 1.7 0.00 0.00 0.00 66 1016.4
20260830202506 74 261 0.0 1.7 0.00 0.00 0.00 65 1016.3
20260830202008 74 260 0.0 0.0 0.00 0.00 0.00 65 1016.3
20260830201508 74 260 0.0 0.0 0.00 0.00 0.00 65 1016.3
20260830201005 75 260 0.0 0.0 0.00 0.00 0.00 64 1016.3
20260830200509 75 260 0.0 0.0 0.00 0.00 0.00 63 1016.4
20260830200005 75 260 0.0 0.0 0.00 0.00 0.00 63 1016.3
20260830195505 75 260 0.0 0.0 0.00 0.00 0.00 62 1016.4
20260830195005 76 260 0.0 0.0 0.00 0.00 0.00 62 1016.4
20260830194507 76 260 0.0 0.0 0.00 0.00 0.00 62 1016.4
20260830194005 76 260 0.0 0.0 0.00 0.00 0.00 62 1016.4
20260830193505 76 260 0.0 0.0 0.00 0.00 0.00 61 1016.4
20260830193005 77 260 0.0 0.0 0.00 0.00 0.00 61 1016.4
20260830192504 77 260 0.0 0.9 0.00 0.00 0.00 60 1016.4
20260830192004 77 260 0.0 0.9 0.00 0.00 0.00 60 1016.4
20260830191518 77 260 0.0 0.9 0.00 0.00 0.00 59 1016.4
20260830191004 78 260 0.0 0.0 0.00 0.00 0.00 58 1016.3
20260830190504 78 260 0.0 0.0 0.00 0.00 0.00 58 1016.4
20260830190004 78 260 0.0 0.0 0.00 0.00 0.00 58 1016.5
20260830185504 78 260 0.0 0.0 0.00 0.00 0.00 57 1016.4
20260830185008 78 260 0.0 0.0 0.00 0.00 0.00 56 1016.3
20260830184504 79 260 0.0 0.0 0.00 0.00 0.00 55 1016.3
20260830184003 79 260 0.0 0.0 0.00 0.00 0.00 55 1016.2
20260830183503 79 260 0.0 0.0 0.00 0.00 0.00 54 1016.1
20260830183004 79 260 0.0 0.9 0.00 0.00 0.00 54 1016.1
20260830182506 79 260 0.0 0.9 0.00 0.00 0.00 54 1016.1
20260830182005 79 260 0.0 0.9 0.00 0.00 0.00 54 1016.1
20260830181503 80 260 0.0 0.9 0.00 0.00 0.00 53 1016.1
20260830181003 80 260 0.0 0.0 0.00 0.00 0.00 53 1016.0
20260830180502 80 260 0.0 0.9 0.00 0.00 0.00 53 1016.0
20260830180002 80 260 0.0 1.7 0.00 0.00 0.00 52 1016.1
20260830175503 80 260 0.0 1.7 0.00 0.00 0.00 52 1016.1
20260830175002 80 304 0.0 0.0 0.00 0.00 0.00 52 1016.1
20260830174503 81 304 0.0 0.9 0.00 0.00 0.00 51 1016.2
20260830174002 81 304 0.0 0.9 0.00 0.00 0.00 52 1016.2
20260830173504 81 304 0.0 1.7 0.00 0.00 0.00 51 1016.3
20260830173003 81 311 0.0 2.6 0.00 0.00 0.00 51 1016.3
20260830172502 81 312 0.0 2.6 0.00 0.00 0.00 50 1016.3
20260830172003 81 278 0.0 3.5 0.00 0.00 0.00 50 1016.2
20260830171502 81 278 0.9 4.3 0.00 0.00 0.00 50 1016.2
20260830171102 82 193 0.0 4.3 0.00 0.00 0.00 50 1016.2
20260830170600 82 184 0.0 2.6 0.00 0.00 0.00 50 1016.2
20260830170101 82 28 0.0 3.5 0.00 0.00 0.00 50 1016.2
20260830165559 82 350 0.0 3.5 0.00 0.00 0.00 49 1016.1
20260830165100 82 325 0.0 1.7 0.00 0.00 0.00 49 1016.2
20260830164600 82 222 0.0 1.7 0.00 0.00 0.00 49 1016.2
20260830164059 82 229 0.0 1.7 0.00 0.00 0.00 49 1016.2
20260830163559 82 84 0.0 0.0 0.00 0.00 0.00 49 1016.2
20260830163059 82 329 0.0 0.9 0.00 0.00 0.00 49 1016.2
20260830162559 82 175 0.0 1.7 0.00 0.00 0.00 48 1016.2
20260830162058 83 176 0.0 1.7 0.00 0.00 0.00 48 1016.1
20260830161610 83 242 0.0 2.6 0.00 0.00 0.00 49 1016.1
20260830161058 83 321 0.0 5.2 0.00 0.00 0.00 49 1016.1
20260830160558 83 170 1.7 5.2 0.00 0.00 0.00 48 1016.2
20260830160100 83 172 0.0 5.2 0.00 0.00 0.00 49 1016.2
20260830155600 83 174 0.9 5.2 0.00 0.00 0.00 49 1016.2
20260830155057 83 119 0.9 5.2 0.00 0.00 0.00 49 1016.2
20260830154605 83 273 1.7 5.2 0.00 0.00 0.00 49 1016.2
20260830154055 83 185 0.0 5.2 0.00 0.00 0.00 50 1016.2
20260830153555 83 111 0.0 6.1 0.00 0.00 0.00 50 1016.2
20260830153056 82 120 0.9 5.2 0.00 0.00 0.00 50 1016.3
20260830152555 82 239 0.0 3.5 0.00 0.00 0.00 50 1016.3
20260830152055 82 294 0.9 4.3 0.00 0.00 0.00 50 1016.3
20260830151556 82 355 0.9 4.3 0.00 0.00 0.00 50 1016.3
20260830151054 83 205 0.9 3.5 0.00 0.00 0.00 50 1016.4
20260830150555 83 27 0.9 4.3 0.00 0.00 0.00 50 1016.5
20260830150054 83 107 0.9 4.3 0.00 0.00 0.00 50 1016.4
20260830145554 83 123 0.9 5.2 0.00 0.00 0.00 51 1016.4